[Iaude] MPEC J06: 2024 HN2 [a=1.76,e=0.42,i=6.4,H=24.9]
    mpec at cfa.harvard.edu 
    mpec at cfa.harvard.edu
       
    Wed May  1 06:48:05 EDT 2024
    
    
  
M.P.E.C. 2024-J06                                   Issued 2024 May 1, 10:46 UT
     The Minor Planet Electronic Circulars contain information on unusual
         minor planets, routine data on comets and natural satellites,
         and occasional editorial announcements.  They are published
    on behalf of Division F of the International Astronomical Union by the
          Minor Planet Center, Smithsonian Astrophysical Observatory,
                          Cambridge, MA 02138, U.S.A.
			  
             Prepared using the Tamkin Foundation Computer Network
                              MPC at CFA.HARVARD.EDU
            URL https://www.minorplanetcenter.net/    ISSN 1523-6714
                                    2024 HN2                                    
Observations:
     K24H02N KC2024 04 29.95038214 36 19.51 +07 37 52.9          20.6 RoEJ006K88
     K24H02N KC2024 04 29.95334214 36 20.37 +07 37 51.9          20.5 RoEJ006K88
     K24H02N KC2024 04 29.95630114 36 21.31 +07 37 51.6          20.6 RoEJ006K88
     K24H02N KC2024 04 29.97020014 36 25.50 +07 37 50.4          20.5 RoEJ006K88
     K24H02N KC2024 04 29.97343414 36 26.46 +07 37 50.3          20.4 RoEJ006K88
     K24H02N* C2024 04 29.99034114 36 31.64 +07 37 48.4          20.4 RoEJ006K88
     K24H02N  C2024 04 29.99399214 36 32.77 +07 37 48.0          20.4 RoEJ006K88
     K24H02N  C2024 04 29.99764214 36 33.96 +07 37 47.4          20.7 RoEJ006K88
     K24H02N KC2024 04 30.02537614 36 42.38 +07 37 44.8          20.7 RoEJ006K88
     K24H02N KC2024 04 30.02999714 36 43.81 +07 37 44.0          20.2 RoEJ006K88
     K24H02N mC2024 04 30.21700614 37 50.106+07 37 48.97         20.96GVEJ006I52
     K24H02N mC2024 04 30.21852214 37 50.516+07 37 49.44         21.70GVEJ006I52
     K24H02N mC2024 04 30.22003914 37 50.963+07 37 48.79         21.72GVEJ006I52
     K24H02N mC2024 04 30.22156514 37 51.438+07 37 48.97         20.23GVEJ006I52
     K24H02N KB2024 04 30.23439 14 37 55.06 +07 37 48.7          20.0 VZEJ006V24
     K24H02N KB2024 04 30.24005 14 37 56.72 +07 37 48.6          20.3 VZEJ006V24
     K24H02N KB2024 04 30.24571 14 37 58.44 +07 37 49.1          19.8 VZEJ006V24
     K24H02N KC2024 04 30.97216 14 41 43.67 +07 36 05.3          20.5 GVEJ006K88
     K24H02N KC2024 04 30.97734 14 41 45.09 +07 36 04.4          20.7 GVEJ006K88
     K24H02N KB2024 05 01.02127 14 41 56.81 +07 36 00.2          20.1 GXEJ006M45
     K24H02N KB2024 05 01.02576 14 41 58.11 +07 35 58.6          19.8 GXEJ006M45
     K24H02N KC2024 05 01.20471414 42 56.92 +07 35 47.4          20.7 GXEJ006858
     K24H02N KC2024 05 01.21517414 42 59.75 +07 35 45.9                XEJ006858
     K24H02N KC2024 05 01.22021314 43 01.17 +07 35 45.9          20.9 GXEJ006858
     K24H02N mC2024 05 01.22249814 43 02.190+07 35 48.62         20.58GVEJ006I52
     K24H02N mC2024 05 01.22613114 43 03.155+07 35 48.05         20.89GVEJ006I52
     K24H02N mC2024 05 01.22682514 43 03.349+07 35 47.58         22.12GVEJ006I52
     K24H02N mC2024 05 01.22804314 43 03.731+07 35 47.76         21.71GVEJ006I52
Observer details:
858 Tebbutt Observatory, Edgewood.  Observer F. B. Zoltowski.  0.51-m f/8.1
    Schmidt-Cassegrain + CCD.
I52 Steward Observatory, Mt. Lemmon Station.  Observers V. F. Carvajal, G. J.
    Leonard.  Measurers T. Beuden, V. F. Carvajal, D. Fay, J. B. Fazekas, D.
    C. Fuls, A. R. Gibbs, A. D. Grauer, H. Groeller, J. K. Hogan, R. A.
    Kowalski, S. M. Larson, G. J. Leonard, D. Rankin, R. L. Seaman, F. C.
    Shelly, K. W. Wierzchos.  1.0-m prime focus + CCD.
K88 GINOP-KHK, Piszkesteto.  Observer K. Sarneczky.  0.60-m Schmidt + CCD.
M45 Starhopper Observatory, Sfantu Gheorghe.  Observer F. Ursache.  0.41-m
    f/7.5 reflector + CMO.
V24 Sonoran Desert Skies Observatory, Pearce.  Observer A. Helms.  0.32-m
    f/6.7 reflector + CMO.
Orbital elements:
2024 HN2                                                 Earth MOID = 0.0333 AU
Epoch 2024 Mar. 31.0 TT = JDT 2460400.5                 Veres                   
M   2.63835              (2000.0)            P               Q                  
n   0.42059296     Peri.  336.92053     -0.99905311     -0.00313688             
a   1.7642551      Node   203.02701     +0.01609540     -0.95328263             
e   0.4223477      Incl.    6.36923     -0.04042047     -0.30206354             
P   2.34           H   24.91          G   0.15           U   8                  
Residuals in seconds of arc
240429 K88  0.5+  1.0+    240430 I52  0.4+  0.2-    240501 M45  0.1-  0.1-
240429 K88  0.2-  0.2+    240430 I52  0.2-  0.4+    240501 858  0.5-  0.2+
240429 K88  0.4+  0.1+    240430 I52  0.3-  0.2-    240501 858  0.6-  0.2-
240429 K88  0.4-  0.0     240430 I52  0.1+  0.1+    240501 858  0.2+  0.4+
240429 K88  0.8-  0.2+    240430 V24  0.9-  0.4-    240501 I52  0.1-  0.1+
240429 K88  0.4-  0.2-    240430 V24  0.9-  0.1-    240501 I52  0.3-  0.0
240429 K88  0.2-  0.3-    240430 V24  0.0   0.7+    240501 I52  0.2-  0.4-
240429 K88  0.9+  0.6-    240430 K88  0.6+  0.6+    240501 I52  0.6+  0.1-
240430 K88  0.0   0.5-    240430 K88  0.3+  0.4+
240430 K88  0.3+  0.8-    240501 M45  0.7-  0.8+
Ephemeris:
2024 HN2                 a,e,i = 1.76, 0.42, 6                   q = 1.0191
Date    TT    R. A. (2000) Decl.     Delta      r    Elong.  Phase     V
2024 04 01    07 55 43.3 -05 52 55   0.06578 1.0223   108.8    67.7    21.4
...
2024 04 16    12 02 33.7 +04 29 02   0.05016 1.0482   152.3    26.4    19.7
...
2024 04 24    13 52 36.8 +07 22 25   0.07022 1.0717   159.5    19.2    20.3
...
2024 04 30    14 36 35.7 +07 38 49   0.09240 1.0932   157.5    20.6    21.0
2024 05 01    14 41 52.5 +07 37 00   0.09645 1.0971   157.2    20.8    21.1
2024 05 02    14 46 42.8 +07 34 16   0.1006  1.1011   157.0    21.0    21.2
...
2024 05 08    15 08 38.8 +07 03 15   0.1270  1.1264   155.8    21.6    21.7
...
2024 05 16    15 26 08.2 +05 55 09   0.1662  1.1638   155.0    21.6    22.4
...
2024 05 31    15 43 44.2 +03 03 09   0.2520  1.2426   152.4    22.2    23.5
M. P. C. Staff               (C) Copyright 2024 MPC           M.P.E.C. 2024-J06
    
    
More information about the Iaude
mailing list